Date,TemperatureHighF,TemperatureAvgF,TemperatureLowF,DewpointHighF,DewpointAvgF,DewpointLowF,HumidityHigh,HumidityAvg,HumidityLow,PressureMaxIn,PressureMinIn,WindSpeedMaxMPH,WindSpeedAvgMPH,GustSpeedMaxMPH,PrecipitationSumIn
2013-9-1,89.9,75.8,64.8,73.0,67.9,61.5,100,79,49,29.71,29.61,17,0,17,1.84
2013-9-2,79.8,69.4,61.0,65.2,60.0,55.5,96,74,49,29.87,29.71,11,0,11,39.80
2013-9-3,77.7,65.4,53.3,60.3,56.7,52.7,99,76,47,29.98,29.87,33,0,33,0.00
2013-9-4,84.3,69.8,57.6,60.9,57.5,50.9,98,69,34,30.03,29.93,22,0,22,0.00
2013-9-5,86.5,73.8,63.5,69.8,61.9,55.2,83,67,45,30.08,29.99,14,0,14,0.00
2013-9-6,87.0,73.4,59.6,65.7,59.9,51.7,86,64,44,30.07,29.88,8,0,18,0.00
2013-9-7,88.2,77.1,67.3,68.9,65.0,62.3,85,67,45,29.90,29.76,28,0,28,0.00
2013-9-8,85.9,76.8,70.4,72.6,69.9,66.1,97,80,61,29.85,29.75,69,0,69,0.00
2013-9-9,95.9,82.8,72.7,73.7,71.7,68.1,97,72,41,29.79,29.70,33,0,33,0.00
2013-9-10,95.6,84.3,74.0,70.9,66.0,61.7,72,56,34,29.90,29.77,25,0,25,0.00
2013-9-11,93.4,80.2,71.5,71.2,67.1,64.3,98,66,40,29.94,29.87,10,0,10,0.00
2013-9-12,82.4,72.1,58.0,71.1,59.1,42.7,100,69,28,29.97,29.87,24,0,24,0.00
2013-9-13,71.1,59.8,53.5,53.0,44.4,32.6,92,61,28,30.08,29.96,11,0,11,0.00
2013-9-14,72.3,59.8,46.0,49.3,45.1,38.2,98,62,30,30.08,29.90,1,0,6,0.00
2013-9-15,65.5,60.6,55.9,61.4,53.2,44.3,98,78,57,30.04,29.86,7,0,7,0.00
2013-9-16,70.3,60.0,52.9,56.8,52.8,47.9,100,79,51,30.22,30.04,18,0,18,0.00
2013-9-17,72.8,61.4,48.8,58.8,53.7,48.0,99,77,55,30.19,29.96,69,0,69,0.00
2013-9-18,85.1,74.0,64.3,70.4,63.9,54.0,85,71,57,29.96,29.77,1,0,10,0.00
2013-9-19,89.3,79.2,66.6,71.3,68.6,63.1,99,72,50,29.80,29.64,0,0,0,0.00
2013-9-20,70.3,65.8,55.7,68.1,60.4,49.9,100,84,51,29.78,29.68,0,0,0,0.00
2013-9-21,69.1,58.2,49.6,52.6,49.4,45.2,97,75,43,29.83,29.75,1,0,1,0.00
2013-9-22,71.5,58.3,46.2,51.1,48.6,44.4,100,73,40,29.94,29.83,0,0,0,0.00
2013-9-23,74.0,60.5,47.6,51.9,48.1,45.5,94,66,39,29.96,29.85,5,0,5,0.00
2013-9-24,76.0,62.8,50.1,56.7,52.3,48.4,95,71,45,29.87,29.75,8,0,8,0.00
2013-9-25,78.5,64.4,53.8,60.0,54.2,50.3,89,71,48,29.81,29.75,0,0,0,0.00
2013-9-26,82.6,66.3,53.6,61.2,54.9,47.7,98,70,44,29.91,29.81,2,0,2,0.00
2013-9-27,82.2,69.2,55.7,58.7,52.3,46.9,89,58,32,30.01,29.89,0,0,0,0.00
2013-9-28,81.8,69.6,58.4,68.3,59.5,52.9,100,72,50,29.92,29.77,14,0,14,0.00
2013-9-29,69.8,58.3,48.9,58.1,49.7,41.0,100,77,37,29.97,29.87,18,0,19,0.00
2013-9-30,75.6,62.8,49.6,61.2,52.5,46.9,100,73,38,29.88,29.75,26,0,26,0.00